Location: Appeville
(49.3218°N, 1.3427°W)
Time: 05:31:52
(UTC+00:00)

Cosmos 1420 Rocket - Pass Details

Date: 08 December 2019
Orbit: 754 x 781 km, 74.0° (Epoch: 26 January)

Event Time Altitude Azimuth Distance (km) Brightness Sun altitude
Rises 05:31:36 0° 191° (SSW) 3,211 7.2 -21.0°
Reaches altitude 10° 05:33:58 10° 189° (S) 2,286 6.5 -20.7°
Maximum altitude 05:39:05 63° 109° (ESE) 843 4.4 -19.8°
Drops below altitude 10° 05:44:13 10° 29° (NNE) 2,292 6.6 -19.0°
Sets 05:46:36 0° 26° (NNE) 3,220 7.4 -18.7°
